Change the Weather History Date:

Monday, March 25, 2013

  Actual Average Record
Temperature  
Mean Temperature 22 °F -  
Max Temperature 28 °F 44 °F 69 °F (2004)
Min Temperature 17 °F 26 °F -5 °F (1964)
Degree Days  
Heating Degree Days 42    
Moisture  
Dew Point 19 °F    
Average Humidity 80    
Maximum Humidity 86    
Minimum Humidity 74    
Precipitation  
Precipitation 0.00 in - - ()
Sea Level Pressure  
Sea Level Pressure 30.21 in    
Wind  
Wind Speed 13 mph (North)    
Max Wind Speed 23 mph    
Max Gust Speed 26 mph    
Visibility 10 miles    
Events Snow    
Averages and records for this station are not official NWS values.
T = Trace of Precipitation, MM = Missing Value Source: NWS Daily Summary

Daily Weather History Graph

Daily Weather History Graph

Search for Another Location

Airport or City:

Trip Planner

Search our weather history database for the weather conditions in past years. The results will help you decide how hot, cold, wet, or windy it might be!

Date:

Astronomy

Mar. 25, 2013 Rise Set
Actual Time 7:15 AM CDT 7:41 PM CDT
Civil Twilight 6:46 AM CDT 8:11 PM CDT
Nautical Twilight 6:11 AM CDT 8:46 PM CDT
Astronomical Twilight 5:35 AM CDT 9:22 PM CDT
Moon 6:12 PM CDT (3/25) 6:03 AM CDT (3/25)
Length of Visible Light 13h 25m
Length of Day
12h 26m
Waxing Gibbous, 96% of the Moon is Illuminated
Mar 25
Waxing Gibbous
Mar 27
Full
Apr 2
Last Quarter
Apr 10
New
Apr 18
First Quarter

Hourly Weather History & Observations

Time (CDT) Temp. Windchill Dew Point Humidity Pressure Visibility Wind Dir Wind Speed Gust Speed Precip Events Conditions
12:13 AM 24.8 °F 14.0 °F 21.2 °F 86% 30.11 in 10.0 mi North 11.5 mph - N/A Snow Light Snow
12:32 AM 24.8 °F 13.4 °F 21.2 °F 86% 30.11 in 10.0 mi North 12.7 mph - N/A   Overcast
12:52 AM 24.8 °F 14.6 °F 21.2 °F 86% 30.11 in 10.0 mi North 10.4 mph - N/A Snow Light Snow
1:13 AM 24.8 °F 14.0 °F 21.2 °F 86% 30.11 in 10.0 mi North 11.5 mph - N/A Snow Light Snow
1:53 AM 24.8 °F 13.4 °F 21.2 °F 86% 30.11 in 10.0 mi NNE 12.7 mph - N/A Snow Light Snow
2:13 AM 24.8 °F 15.3 °F 21.2 °F 86% 30.12 in 10.0 mi NNE 9.2 mph - N/A Snow Light Snow
2:32 AM 24.8 °F 16.1 °F 21.2 °F 86% 30.12 in 10.0 mi NNE 8.1 mph - N/A Snow Light Snow
2:53 AM 24.8 °F 16.1 °F 21.2 °F 86% 30.12 in 10.0 mi North 8.1 mph - N/A Snow Light Snow
3:12 AM 24.8 °F 15.3 °F 21.2 °F 86% 30.12 in 10.0 mi North 9.2 mph - N/A   Overcast
3:32 AM 24.8 °F 16.9 °F 21.2 °F 86% 30.13 in 10.0 mi NNE 6.9 mph - N/A   Overcast
3:53 AM 26.6 °F 16.2 °F 19.4 °F 74% 30.13 in 10.0 mi NE 11.5 mph - N/A Snow Light Snow
4:12 AM 26.6 °F 17.5 °F 19.4 °F 74% 30.12 in 10.0 mi NE 9.2 mph - N/A Snow Light Snow
4:32 AM 26.6 °F 16.8 °F 19.4 °F 74% 30.13 in 10.0 mi NNE 10.4 mph - N/A Snow Light Snow
4:53 AM 26.6 °F 17.5 °F 19.4 °F 74% 30.13 in 10.0 mi NNE 9.2 mph - N/A Snow Light Snow
5:33 AM 24.8 °F 14.6 °F 19.4 °F 80% 30.14 in 10.0 mi NNE 10.4 mph 17.3 mph N/A Snow Light Snow
5:52 AM 24.8 °F 14.0 °F 19.4 °F 80% 30.15 in 10.0 mi NNE 11.5 mph - N/A Snow Light Snow
6:13 AM 24.8 °F 14.6 °F 19.4 °F 80% 30.15 in 10.0 mi NNE 10.4 mph - N/A Snow Light Snow
6:33 AM 24.8 °F 13.4 °F 19.4 °F 80% 30.16 in 10.0 mi NNE 12.7 mph - N/A Snow Light Snow
6:52 AM 24.8 °F 13.4 °F 19.4 °F 80% 30.16 in 10.0 mi North 12.7 mph - N/A Snow Light Snow
7:13 AM 24.8 °F 13.4 °F 19.4 °F 80% 30.17 in 10.0 mi North 12.7 mph - N/A Snow Light Snow
7:33 AM 24.8 °F 14.0 °F 19.4 °F 80% 30.18 in 10.0 mi NNE 11.5 mph - N/A Snow Light Snow
7:52 AM 24.8 °F 13.4 °F 19.4 °F 80% 30.18 in 10.0 mi North 12.7 mph - N/A Snow Light Snow
8:13 AM 24.8 °F 12.4 °F 19.4 °F 80% 30.19 in 10.0 mi North 15.0 mph - N/A Snow Light Snow
8:52 AM 24.8 °F 11.9 °F 19.4 °F 80% 30.20 in 10.0 mi North 16.1 mph - N/A   Overcast
9:13 AM 24.8 °F 13.4 °F 19.4 °F 80% 30.20 in 10.0 mi North 12.7 mph - N/A   Overcast
9:33 AM 24.8 °F 11.9 °F 19.4 °F 80% 30.20 in 10.0 mi North 16.1 mph - N/A   Overcast
9:52 AM 24.8 °F 11.9 °F 19.4 °F 80% 30.21 in 10.0 mi North 16.1 mph - N/A   Overcast
10:13 AM 24.8 °F 12.9 °F 19.4 °F 80% 30.21 in 10.0 mi North 13.8 mph - N/A   Overcast
10:32 AM 24.8 °F 12.4 °F 19.4 °F 80% 30.21 in 10.0 mi North 15.0 mph - N/A   Overcast
10:52 AM 24.8 °F 12.4 °F 19.4 °F 80% 30.22 in 10.0 mi North 15.0 mph - N/A   Overcast
11:13 AM 26.6 °F 14.3 °F 21.2 °F 80% 30.22 in 10.0 mi North 16.1 mph - N/A   Overcast
11:32 AM 26.6 °F 13.8 °F 21.2 °F 80% 30.22 in 10.0 mi North 17.3 mph - N/A   Overcast
11:53 AM 28.4 °F 16.2 °F 21.2 °F 74% 30.23 in 10.0 mi North 17.3 mph - N/A   Overcast
12:13 PM 28.4 °F 17.0 °F 21.2 °F 74% 30.23 in 10.0 mi North 15.0 mph - N/A   Mostly Cloudy
12:32 PM 28.4 °F 17.0 °F 21.2 °F 74% 30.23 in 10.0 mi North 15.0 mph 19.6 mph N/A   Scattered Clouds
12:53 PM 28.4 °F 16.6 °F 21.2 °F 74% 30.23 in 10.0 mi North 16.1 mph - N/A   Clear
1:12 PM 28.4 °F 16.2 °F 21.2 °F 74% 30.23 in 10.0 mi North 17.3 mph - N/A   Clear
1:32 PM 28.4 °F 16.6 °F 21.2 °F 74% 30.23 in 10.0 mi North 16.1 mph - N/A   Clear
1:53 PM 28.4 °F 16.6 °F 21.2 °F 74% 30.23 in 10.0 mi North 16.1 mph - N/A   Clear
2:12 PM 28.4 °F 15.4 °F 21.2 °F 74% 30.22 in 10.0 mi North 19.6 mph - N/A   Clear
2:33 PM 28.4 °F 15.8 °F 21.2 °F 74% 30.22 in 10.0 mi North 18.4 mph - N/A   Clear
2:53 PM 28.4 °F 15.8 °F 21.2 °F 74% 30.22 in 10.0 mi North 18.4 mph - N/A   Clear
3:12 PM 28.4 °F 16.2 °F 21.2 °F 74% 30.22 in 10.0 mi North 17.3 mph 25.3 mph N/A   Clear
3:33 PM 28.4 °F 15.4 °F 21.2 °F 74% 30.23 in 10.0 mi North 19.6 mph - N/A   Clear
3:53 PM 28.4 °F 14.4 °F 21.2 °F 74% 30.23 in 10.0 mi North 23.0 mph - N/A   Clear
4:12 PM 28.4 °F 15.4 °F 21.2 °F 74% 30.23 in 10.0 mi North 19.6 mph - N/A   Clear
4:33 PM 28.4 °F 15.4 °F 21.2 °F 74% 30.23 in 10.0 mi North 19.6 mph 25.3 mph N/A   Clear
4:52 PM 26.6 °F 13.4 °F 21.2 °F 80% 30.24 in 10.0 mi North 18.4 mph 26.5 mph N/A   Clear
5:13 PM 26.6 °F 12.4 °F 21.2 °F 80% 30.24 in 10.0 mi North 21.9 mph - N/A   Clear
5:33 PM 26.6 °F 13.4 °F 21.2 °F 80% 30.25 in 10.0 mi North 18.4 mph - N/A   Clear
5:52 PM 26.6 °F 14.3 °F 21.2 °F 80% 30.25 in 10.0 mi North 16.1 mph 24.2 mph N/A   Clear
6:13 PM 26.6 °F 14.3 °F 19.4 °F 74% 30.25 in 10.0 mi North 16.1 mph - N/A   Clear
6:33 PM 24.8 °F 11.1 °F 19.4 °F 80% 30.26 in 10.0 mi North 18.4 mph 23.0 mph N/A   Clear
6:52 PM 24.8 °F 10.3 °F 19.4 °F 80% 30.26 in 10.0 mi North 20.7 mph 25.3 mph N/A   Clear
7:13 PM 24.8 °F 11.9 °F 19.4 °F 80% 30.27 in 10.0 mi North 16.1 mph - N/A   Clear
7:32 PM 24.8 °F 11.1 °F 17.6 °F 74% 30.28 in 10.0 mi North 18.4 mph - N/A   Clear
7:53 PM 23.0 °F 9.2 °F 17.6 °F 80% 30.28 in 10.0 mi North 17.3 mph - N/A   Clear
8:13 PM 21.2 °F 6.8 °F 17.6 °F 86% 30.28 in 10.0 mi North 17.3 mph - N/A   Clear
8:32 PM 21.2 °F 7.8 °F 15.8 °F 80% 30.29 in 10.0 mi North 15.0 mph - N/A   Clear
8:53 PM 21.2 °F 6.8 °F 15.8 °F 80% 30.29 in 10.0 mi North 17.3 mph - N/A   Clear
9:13 PM 21.2 °F 8.3 °F 15.8 °F 80% 30.29 in 10.0 mi North 13.8 mph - N/A   Clear
9:32 PM 21.2 °F 7.8 °F 15.8 °F 80% 30.29 in 10.0 mi North 15.0 mph - N/A   Clear
9:53 PM 21.2 °F 6.8 °F 15.8 °F 80% 30.29 in 10.0 mi North 17.3 mph - N/A   Clear
10:12 PM 19.4 °F 5.5 °F 15.8 °F 86% 30.29 in 10.0 mi North 15.0 mph - N/A   Clear
10:32 PM 19.4 °F 5.5 °F 15.8 °F 86% 30.29 in 10.0 mi North 15.0 mph - N/A   Clear
10:53 PM 19.4 °F 6.0 °F 15.8 °F 86% 30.29 in 10.0 mi North 13.8 mph - N/A   Clear
11:12 PM 17.6 °F 3.7 °F 14.0 °F 86% 30.29 in 10.0 mi North 13.8 mph - N/A   Clear
11:33 PM 17.6 °F 3.7 °F 14.0 °F 86% 30.29 in 10.0 mi North 13.8 mph - N/A   Clear
11:53 PM 17.6 °F 4.3 °F 14.0 °F 86% 30.30 in 10.0 mi North 12.7 mph - N/A   Clear